Regional Weather Roundup
Issued by NWS

Home | Current Version | Previous Version | Graphics & Text | Print | Product List | Glossary On
Versions: 1 2 3 4 5 6 7 8 9 10 11 12 13 14 15 16 17 18 19 20 21 22 23 24 25 26 27 28 29 30 31 32 33 34 35 36 37 38 39 40 41 42 43 44 45 46 47 48 49 50
626
ASUS44 KMEG 260700
RWRTN
TENNESSEE HOURLY STATE WEATHER ROUNDUP
NATIONAL WEATHER SERVICE MEMPHIS TN
200 AM CDT WED APR 26 2017

TNZ002-004-019-021-049-052-054-088>092-260800-
WEST TENNESSEE

CITY           SKY/WX    TMP DP  RH WIND       PRES   REMARKS
MEMPHIS INTL   CLOUDY    66  55  67 S7        29.61F
NWS MEMPHIS      N/A     65 N/A N/A MISG        N/A
JACKSON        CLEAR     66  56  70 S9          N/A
DYERSBURG      CLEAR     67  55  65 S7        29.62S
$$

TNZ008-025-027-028-033-062-065-066-260800-
NORTH MIDDLE TENNESSEE

CITY           SKY/WX    TMP DP  RH WIND       PRES   REMARKS
NASHVILLE      CLEAR     60  55  83 S5        29.69R
CLARKSVILLE    CLEAR     59  54  83 SE5       29.66S
SMYRNA         CLEAR     59  55  87 CALM      29.70S
CROSSVILLE     CLEAR     55  53  93 CALM      29.76F
$$

TNZ061-075-076-078-094-096-097-260800-
SOUTH MIDDLE TENNESSEE

CITY           SKY/WX    TMP DP  RH WIND       PRES   REMARKS
$$

TNZ017-018-042-046-047-260800-
NORTHEAST TENNESSEE

CITY           SKY/WX    TMP DP  RH WIND       PRES   REMARKS
TRI CITIES     PTCLDY    51  50  96 CALM      29.77F FOG
$$

TNZ012-013-036-069-073-074-260800-
CENTRAL EAST TENNESSEE

CITY           SKY/WX    TMP DP  RH WIND       PRES   REMARKS
KNOXVILLE      CLEAR     56  53  90 CALM      29.73F
OAK RIDGE      CLEAR     55  52  89 CALM      29.75F
$$

TNZ083-085-099-260800-
SOUTHEAST TENNESSEE

CITY           SKY/WX    TMP DP  RH WIND       PRES   REMARKS
CHATTANOOGA    CLEAR     59  57  93 CALM      29.75S
$$

SKY/WX REPORTED AS FAIR MEANS FEW OR NO CLOUDS BELOW
12 THOUSAND FEET.





USA.gov is the U.S. government's official web portal to all federal, state and local government web resources and services.